GW3564 Weather Reports


time (UTC)temp
F
wind
direction
speed
knots
gust
knots
rain 1hr
in
rain 24hr
in
rain mn
in
humidity
%
barometer
mb
20260506170924 61 185 0.0 0.9 0.00 0.13 0.13 99 1014.3
20260506170420 61 187 0.9 0.9 0.00 0.13 0.13 99 1014.4
20260506165918 61 178 0.0 0.0 0.00 0.13 0.13 99 1014.6
20260506165416 61 184 0.9 0.9 0.00 0.13 0.13 99 1014.9
20260506164912 61 179 0.0 0.0 0.00 0.13 0.13 99 1014.7
20260506164409 61 192 0.0 0.0 0.05 0.13 0.13 99 1014.9
20260506163907 60 193 0.0 0.9 0.12 0.13 0.13 99 1014.6
20260506163401 60 197 0.9 0.9 0.07 0.12 0.12 99 1015.0
20260506162856 60 197 0.0 0.0 0.05 0.11 0.11 99 1015.0
20260506162355 60 201 0.0 0.9 0.12 0.11 0.11 99 1014.9
20260506161852 60 200 0.0 0.9 0.12 0.10 0.10 99 1015.1
20260506161349 60 187 0.0 0.9 0.05 0.09 0.09 99 1014.9
20260506160847 60 206 0.9 1.7 0.00 0.08 0.08 98 1015.1
20260506160343 60 204 0.9 0.9 0.00 0.08 0.08 98 1015.0
20260506155842 60 213 0.9 0.9 0.00 0.08 0.08 99 1014.5
20260506155338 60 188 0.0 0.9 0.00 0.08 0.08 99 1014.4
20260506153450 60 194 0.0 0.9 0.00 0.08 0.08 99 1014.5
20260506152948 60 200 0.9 0.9 0.00 0.08 0.08 99 1014.4
20260506152444 60 183 0.0 0.9 0.00 0.08 0.08 99 1014.2
20260506151943 59 170 0.0 0.9 0.00 0.08 0.08 99 1014.1
20260506151440 59 205 0.9 0.9 0.00 0.08 0.08 99 1014.2
20260506150937 59 203 1.7 1.7 0.00 0.08 0.08 99 1014.3
20260506150433 59 254 0.9 1.7 0.00 0.08 0.08 99 1014.5
20260506145930 59 203 0.0 0.9 0.00 0.08 0.08 99 1014.2
20260506145426 59 189 0.0 0.9 0.00 0.08 0.08 99 1014.1
20260506144924 59 209 0.9 0.9 0.00 0.08 0.08 99 1014.3
20260506144421 59 187 0.9 0.9 0.00 0.08 0.08 99 1014.4
20260506143919 58 231 0.9 0.9 0.00 0.08 0.08 99 1014.4
20260506143416 58 229 0.9 0.9 0.07 0.08 0.08 99 1014.4
20260506142914 58 222 0.9 0.9 0.07 0.08 0.08 99 1014.6
20260506142412 58 211 0.9 0.9 0.00 0.07 0.07 99 1014.3
20260506141910 58 181 0.9 1.7 0.00 0.07 0.07 99 1014.1
20260506141408 59 201 0.9 1.7 0.07 0.07 0.07 99 1014.0
20260506140906 58 180 0.0 0.0 0.07 0.07 0.07 99 1014.0
20260506140402 58 180 0.0 0.0 0.07 0.07 0.07 99 1014.2
20260506135859 58 223 0.9 0.9 0.00 0.06 0.06 99 1014.1
20260506135356 58 201 0.0 0.9 0.00 0.06 0.06 99 1014.2
20260506134852 58 191 0.0 0.9 0.00 0.06 0.06 98 1014.5
20260506134349 58 190 0.9 0.9 0.00 0.06 0.06 98 1014.2
20260506133846 58 194 0.0 0.9 0.05 0.06 0.06 98 1013.9
20260506133342 58 195 0.0 0.0 0.12 0.06 0.06 97 1014.1
20260506132839 58 177 0.0 0.0 0.19 0.05 0.05 97 1014.3
20260506132336 57 176 0.0 0.0 0.12 0.04 0.04 96 1014.2
20260506131834 58 196 1.7 1.7 0.00 0.02 0.02 95 1014.3
20260506131330 58 191 0.9 0.9 0.05 0.02 0.02 94 1014.3
20260506130828 58 184 0.0 0.0 0.05 0.02 0.02 93 1014.2
20260506130324 58 190 0.0 0.0 0.00 0.01 0.01 93 1013.9
20260506125822 58 214 0.9 0.9 0.00 0.01 0.01 92 1013.7
20260506125320 58 181 0.0 0.0 0.07 0.01 0.01 91 1013.8
20260506124818 59 188 0.0 0.9 0.07 0.01 0.01 89 1013.7
20260506124315 60 174 0.0 0.9 0.00 0.00 0.00 86 1013.8
20260506123812 60 225 0.9 0.9 0.00 0.00 0.00 84 1013.8
20260506123311 60 213 0.9 0.9 0.00 0.00 0.00 81 1013.6
20260506122807 60 189 0.9 0.9 0.00 0.00 0.00 81 1013.6
20260506122306 60 184 0.0 0.9 0.00 0.00 0.00 81 1013.5
20260506121802 60 212 0.0 0.9 0.00 0.00 0.00 82 1013.5
20260506121259 60 199 0.0 0.9 0.00 0.00 0.00 81 1013.6
20260506120756 60 216 0.9 1.7 0.00 0.00 0.00 80 1013.4
20260506120254 60 200 0.0 0.9 0.00 0.00 0.00 80 1013.4
20260506115752 60 187 0.9 0.9 0.00 0.00 0.00 82 1013.3
20260506115250 60 203 0.9 0.9 0.00 0.00 0.00 82 1013.0
20260506114747 60 191 1.7 1.7 0.00 0.00 0.00 82 1013.2
20260506114245 59 232 0.9 0.9 0.00 0.00 0.00 82 1013.2
20260506113743 59 203 0.0 0.0 0.00 0.00 0.00 82 1013.0
20260506113240 59 186 0.0 0.9 0.00 0.00 0.00 82 1012.8
20260506112736 59 248 1.7 1.7 0.00 0.00 0.00 83 1012.5
20260506112234 59 192 0.0 0.9 0.00 0.00 0.00 83 1012.6
20260506111731 59 128 0.0 0.9 0.00 0.00 0.00 84 1012.7
20260506111230 59 171 0.0 0.9 0.00 0.00 0.00 85 1012.7
20260506110726 59 172 0.0 0.9 0.00 0.00 0.00 83 1012.8
20260506110224 58 193 0.9 0.9 0.00 0.00 0.00 84 1012.6
20260506105720 58 184 0.0 0.0 0.00 0.00 0.00 85 1012.7
20260506105217 59 194 0.9 0.9 0.00 0.00 0.00 85 1012.8
20260506104715 59 174 0.0 0.0 0.00 0.00 0.00 84 1012.5
20260506104212 59 179 0.0 0.0 0.00 0.00 0.00 83 1012.7
20260506103709 59 187 0.0 0.0 0.00 0.00 0.00 80 1012.5
20260506103206 59 180 0.0 0.0 0.00 0.00 0.00 80 1012.5
20260506102704 59 178 0.0 0.0 0.00 0.00 0.00 81 1012.5
20260506102202 58 182 0.0 0.0 0.00 0.00 0.00 82 1012.6
20260506101658 58 174 0.0 0.9 0.00 0.00 0.00 82 1012.6
20260506101155 57 185 0.0 0.0 0.00 0.00 0.00 84 1012.6
20260506100653 57 171 0.0 0.9 0.00 0.00 0.00 84 1012.4
20260506100151 57 178 0.0 0.0 0.00 0.00 0.00 84 1012.5
20260506095650 56 161 0.0 0.0 0.00 0.00 0.00 86 1012.3
20260506095146 56 194 0.0 0.9 0.00 0.00 0.00 86 1012.8
20260506094643 56 184 0.0 0.9 0.00 0.00 0.00 85 1012.3
20260506094141 56 183 0.0 0.0 0.00 0.00 0.00 85 1012.2
20260506093639 56 174 0.0 0.0 0.00 0.00 0.00 84 1012.6
20260506093136 56 180 0.0 0.0 0.00 0.00 0.00 83 1012.6
20260506092634 56 180 0.0 0.0 0.00 0.00 0.00 83 1012.7
20260506092131 56 191 0.0 0.0 0.00 0.00 0.00 83 1012.8
20260506091629 57 182 0.0 0.0 0.00 0.00 0.00 82 1012.7
20260506091126 57 182 0.0 0.0 0.00 0.00 0.00 82 1012.6
20260506090624 57 158 0.0 0.9 0.00 0.00 0.00 81 1012.6
20260506090120 57 192 0.0 0.0 0.00 0.00 0.00 81 1012.7
20260506085617 57 183 0.0 0.0 0.00 0.00 0.00 80 1012.8
20260506085113 57 190 0.0 0.0 0.00 0.00 0.00 80 1012.9
20260506084610 58 173 0.0 0.0 0.00 0.00 0.00 78 1013.2
20260506084107 58 183 0.0 0.0 0.00 0.00 0.00 77 1013.0
20260506083604 59 166 0.0 0.0 0.00 0.00 0.00 76 1012.7
20260506083101 59 171 0.0 0.0 0.00 0.00 0.00 75 1013.2
20260506082558 59 172 0.0 0.0 0.00 0.00 0.00 74 1012.7
20260506082053 59 172 0.0 0.0 0.00 0.00 0.00 73 1013.0
20260506081552 60 182 0.0 0.0 0.00 0.00 0.00 73 1013.0
20260506081049 60 171 0.0 0.0 0.00 0.00 0.00 73 1013.0
20260506080547 59 156 0.0 0.0 0.00 0.00 0.00 73 1013.2
20260506073027 59 180 0.0 0.0 0.00 0.00 0.00 72 1013.4
20260506072524 59 192 0.0 0.0 0.00 0.00 0.00 71 1013.2
20260506072022 59 187 0.0 0.0 0.00 0.00 0.00 72 1013.3
20260506071520 59 183 0.0 0.0 0.00 0.00 0.00 70 1013.3
20260506071016 59 163 0.0 0.0 0.00 0.00 0.00 70 1013.0
20260506070514 59 178 0.0 0.9 0.00 0.00 0.00 70 1013.3
20260506062451 58 179 0.0 0.0 0.00 0.00 0.00 74 1013.6
20260506061947 58 172 0.0 0.0 0.00 0.00 0.00 73 1013.7
20260506061443 59 167 0.0 0.9 0.00 0.00 0.00 71 1013.6
20260506060941 60 173 0.0 0.0 0.00 0.00 0.00 69 1013.7
20260506060440 60 170 0.0 0.0 0.00 0.00 0.00 69 1013.6
20260506051411 60 186 0.0 0.0 0.00 0.00 0.00 68 1014.4
20260506050908 60 185 0.0 0.0 0.00 0.00 0.00 68 1014.2
20260506050406 61 199 0.0 0.9 0.00 0.00 0.00 66 1014.3
20260506044856 61 193 0.0 0.0 0.00 0.00 0.00 64 1014.3
20260506044354 61 179 0.0 0.0 0.00 0.00 0.00 64 1014.2
20260506043851 61 178 0.0 0.0 0.00 0.00 0.00 63 1014.6
20260506043348 62 176 0.0 0.0 0.00 0.00 0.00 63 1014.3
20260506042847 61 192 0.9 0.9 0.00 0.00 0.00 64 1014.3
20260506042345 61 174 0.0 0.0 0.00 0.00 0.00 64 1014.3
20260506041844 61 175 0.0 0.0 0.00 0.00 0.00 64 1014.6
20260506041340 61 178 0.0 0.0 0.00 0.00 0.00 64 1014.4
20260506040837 61 183 0.0 0.0 0.00 0.00 0.00 64 1014.4
20260506040335 61 181 0.0 0.0 0.00 0.00 0.00 64 1014.7
20260506035831 62 173 0.0 0.0 0.00 0.00 0.00 63 1014.6
20260506035329 62 179 0.0 0.0 0.00 0.00 0.00 61 1014.6
20260506034825 62 181 0.0 0.0 0.00 0.00 0.00 61 1014.7
20260506034323 62 174 0.0 0.0 0.00 0.00 0.00 60 1014.6
20260506033820 62 157 0.0 0.9 0.00 0.00 0.00 60 1015.0
20260506033317 62 179 0.0 0.0 0.00 0.00 0.00 60 1014.6
20260506032813 63 179 0.0 0.0 0.00 0.00 0.00 60 1014.6
20260506032310 63 175 0.0 0.0 0.00 0.00 0.00 59 1014.5
20260506031807 63 170 0.0 0.9 0.00 0.00 0.00 59 1014.6
20260506031304 63 176 0.0 0.0 0.00 0.00 0.00 58 1014.7
20260506030802 63 196 0.9 0.9 0.00 0.00 0.00 57 1014.5
20260506030300 63 180 0.0 0.0 0.00 0.00 0.00 59 1014.4
20260506025757 63 205 0.9 0.9 0.00 0.00 0.00 57 1014.4
20260506025253 63 174 0.0 0.0 0.00 0.00 0.00 58 1014.6
20260506024750 63 187 0.0 0.9 0.00 0.00 0.00 57 1014.6
20260506024246 63 178 0.0 0.0 0.00 0.00 0.00 56 1014.9
20260506023742 63 205 0.9 0.9 0.00 0.00 0.00 56 1014.7
20260506023240 63 177 0.0 0.0 0.00 0.00 0.00 57 1014.6
20260506022737 64 183 0.0 0.0 0.00 0.00 0.00 56 1014.9
20260506022235 64 177 0.0 0.9 0.00 0.00 0.00 56 1015.1
20260506021732 64 181 0.9 0.9 0.00 0.00 0.00 56 1014.9
20260506021229 64 178 0.0 0.0 0.00 0.00 0.00 55 1014.7
20260506020726 64 185 0.9 0.9 0.00 0.00 0.00 55 1014.9
20260506020224 65 203 0.9 1.7 0.00 0.00 0.00 54 1014.9
20260506015721 65 198 0.9 0.9 0.00 0.00 0.00 54 1015.0
20260506015219 65 202 0.9 0.9 0.00 0.00 0.00 53 1014.9
20260506014715 65 185 0.0 0.0 0.00 0.00 0.00 53 1015.0
20260506014211 65 198 1.7 1.7 0.00 0.00 0.00 53 1015.1
20260506013709 65 175 0.9 0.9 0.00 0.00 0.00 54 1014.9
20260506013206 65 172 0.0 0.9 0.00 0.00 0.00 54 1014.9
20260506012702 65 176 0.0 0.0 0.00 0.00 0.00 53 1015.2
20260506012159 65 147 0.9 0.9 0.00 0.00 0.00 52 1015.0
20260506011657 65 182 0.0 0.0 0.00 0.00 0.00 53 1015.0
20260506011152 65 176 0.0 0.9 0.00 0.00 0.00 52 1015.1
20260506010651 65 176 0.9 1.7 0.00 0.00 0.00 52 1015.0
20260506010148 66 226 0.9 0.9 0.00 0.00 0.00 52 1015.0
20260506005645 66 183 0.0 0.0 0.00 0.00 0.00 51 1014.7
20260506005142 66 195 0.9 0.9 0.00 0.00 0.00 52 1014.5
20260506004633 66 151 0.0 0.0 0.00 0.00 0.00 51 1014.5
20260506004130 66 180 0.9 0.9 0.00 0.00 0.00 51 1014.7
20260506003626 67 213 1.7 1.7 0.00 0.00 0.00 49 1014.6
20260506003122 67 197 0.0 0.0 0.00 0.00 0.00 50 1014.5
20260506002618 67 217 0.9 0.9 0.00 0.00 0.00 49 1014.5
20260506002114 67 196 2.6 4.3 0.00 0.00 0.00 49 1014.4
20260506001610 68 208 0.0 0.9 0.00 0.00 0.00 48 1014.6
20260506001107 68 110 1.7 1.7 0.00 0.00 0.00 47 1014.5
20260506000605 68 163 0.9 1.7 0.00 0.00 0.00 48 1014.5
20260505235600 68 208 0.9 1.7 0.00 0.00 0.00 47 1014.4
20260505235057 68 192 1.7 1.7 0.00 0.00 0.00 48 1014.3
20260505234554 69 172 0.0 0.0 0.00 0.00 0.00 46 1014.5
20260505234050 69 153 1.7 1.7 0.00 0.00 0.00 47 1014.3
20260505233548 69 202 1.7 2.6 0.00 0.00 0.00 46 1014.1
20260505233045 69 182 1.7 2.6 0.00 0.00 0.00 48 1014.0
20260505232543 69 213 1.7 1.7 0.00 0.00 0.00 47 1014.1
20260505232040 70 220 0.9 1.7 0.00 0.00 0.00 46 1014.0
20260505231537 70 165 0.9 1.7 0.00 0.00 0.00 46 1014.0
20260505231036 70 164 0.9 0.9 0.00 0.00 0.00 48 1014.0
20260505230533 70 197 2.6 2.6 0.00 0.00 0.00 44 1013.9
20260505230029 70 203 3.5 5.2 0.00 0.00 0.00 46 1013.9
20260505225526 70 179 0.9 1.7 0.00 0.00 0.00 45 1013.8
20260505225022 71 136 0.9 0.9 0.00 0.00 0.00 45 1014.2
20260505224519 71 170 0.9 0.9 0.00 0.00 0.00 45 1013.7
20260505224016 71 147 0.9 1.7 0.00 0.00 0.00 46 1013.8
20260505223513 71 238 2.6 5.2 0.00 0.00 0.00 44 1013.9
20260505223010 71 160 0.9 0.9 0.00 0.00 0.00 44 1014.2
20260505222506 71 156 2.6 5.2 0.00 0.00 0.00 43 1013.9
20260505222002 72 186 0.9 1.7 0.00 0.00 0.00 44 1014.3
20260505221500 72 119 0.9 0.9 0.00 0.00 0.00 43 1014.1
20260505220956 72 180 0.0 0.0 0.00 0.00 0.00 45 1013.9
20260505220453 73 222 0.9 1.7 0.00 0.00 0.00 42 1014.2
20260505215951 73 130 3.5 5.2 0.00 0.00 0.00 41 1014.2
20260505215449 73 231 2.6 4.3 0.00 0.00 0.00 40 1013.8
20260505214946 72 223 0.0 0.9 0.00 0.00 0.00 43 1014.1
20260505214444 72 190 2.6 4.3 0.00 0.00 0.00 41 1014.2
20260505213941 72 184 0.9 0.9 0.00 0.00 0.00 41 1014.3
20260505213439 73 182 0.0 0.9 0.00 0.00 0.00 40 1014.0
20260505212935 74 175 1.7 1.7 0.00 0.00 0.00 42 1013.9
20260505212432 74 209 3.5 4.3 0.00 0.00 0.00 38 1014.0
20260505211928 74 153 0.9 1.7 0.00 0.00 0.00 42 1013.9
20260505211425 74 119 0.9 0.9 0.00 0.00 0.00 38 1013.9
20260505210922 74 224 0.9 1.7 0.00 0.00 0.00 39 1013.8
20260505210419 75 191 1.7 2.6 0.00 0.00 0.00 39 1014.0
20260505205916 75 208 1.7 1.7 0.00 0.00 0.00 39 1014.2
20260505205415 75 185 0.0 0.9 0.00 0.00 0.00 39 1014.1
20260505204911 74 183 0.0 0.9 0.00 0.00 0.00 40 1014.1
20260505204409 73 60 0.9 1.7 0.00 0.00 0.00 39 1014.1
20260505203906 73 223 2.6 2.6 0.00 0.00 0.00 41 1014.1
20260505203402 75 161 2.6 2.6 0.00 0.00 0.00 37 1014.1
20260505202859 75 173 1.7 2.6 0.00 0.00 0.00 39 1014.2
20260505202355 74 235 2.6 4.3 0.00 0.00 0.00 37 1014.2
20260505201852 75 237 1.7 2.6 0.00 0.00 0.00 38 1014.2
20260505201349 74 209 0.9 0.9 0.00 0.00 0.00 38 1014.2
20260505200847 74 165 2.6 2.6 0.00 0.00 0.00 38 1014.5
20260505200344 75 237 1.7 1.7 0.00 0.00 0.00 38 1014.3
20260505195839 75 184 1.7 2.6 0.00 0.00 0.00 37 1014.3
20260505195337 74 170 1.7 2.6 0.00 0.00 0.00 40 1014.5
20260505194834 75 174 0.9 1.7 0.00 0.00 0.00 38 1014.0
20260505194331 75 138 1.7 2.6 0.00 0.00 0.00 37 1014.3
20260505193826 75 216 1.7 2.6 0.00 0.00 0.00 36 1014.4
20260505193324 76 236 1.7 1.7 0.00 0.00 0.00 36 1014.7
20260505192821 77 178 2.6 2.6 0.00 0.00 0.00 38 1014.6
20260505192320 77 177 3.5 5.2 0.00 0.00 0.00 37 1014.5
20260505191817 77 105 0.9 1.7 0.00 0.00 0.00 38 1014.5
20260505191315 76 209 0.9 0.9 0.00 0.00 0.00 38 1014.6
20260505190812 76 186 0.9 1.7 0.00 0.00 0.00 41 1014.6
20260505190307 76 244 2.6 4.3 0.00 0.00 0.00 41 1014.9
20260505185804 76 161 0.9 1.7 0.00 0.00 0.00 43 1015.1
20260505185300 77 140 0.9 0.9 0.00 0.00 0.00 42 1015.1
20260505184756 77 212 2.6 2.6 0.00 0.00 0.00 41 1015.0
20260505184253 77 120 3.5 6.1 0.00 0.00 0.00 42 1014.9
20260505183750 77 174 1.7 1.7 0.00 0.00 0.00 39 1014.7
20260505183248 78 215 0.9 1.7 0.00 0.00 0.00 37 1015.0
20260505182744 76 252 1.7 2.6 0.00 0.00 0.00 37 1014.9
20260505182240 77 247 2.6 2.6 0.00 0.00 0.00 35 1015.3
20260505181737 77 231 1.7 1.7 0.00 0.00 0.00 37 1015.2
20260505181235 77 232 1.7 1.7 0.00 0.00 0.00 40 1015.3
20260505180731 76 139 1.7 2.6 0.00 0.00 0.00 38 1015.3
20260505180228 76 271 4.3 7.0 0.00 0.00 0.00 39 1015.4
20260505175724 76 204 2.6 4.3 0.00 0.00 0.00 39 1015.4
20260505175221 77 173 1.7 1.7 0.00 0.00 0.00 38 1015.4
20260505174717 76 196 0.0 0.0 0.00 0.00 0.00 41 1015.5
20260505174214 77 178 2.6 2.6 0.00 0.00 0.00 41 1015.5
20260505173710 76 226 1.7 1.7 0.00 0.00 0.00 41 1015.8
20260505173207 76 181 0.9 0.9 0.00 0.00 0.00 45 1015.6
20260505172704 76 194 0.9 0.9 0.00 0.00 0.00 40 1015.8
20260505172201 75 190 0.9 0.9 0.00 0.00 0.00 41 1016.0
20260505171701 75 210 1.7 2.6 0.00 0.00 0.00 40 1015.9